Find Local Weather

World > North America > United States > California

Davis, California Regional Weather

Lat: 38.55N, Lon: 121.74W
Wx Zone: CAZ017
Feedback
Expires:201811151100;;334782
ASUS46 KSTO 151015
RWRCA 

NORTHERN AND CENTRAL CA REGIONAL WEATHER ROUNDUP
NATIONAL WEATHER SERVICE SACRAMENTO CA 
200 AM PST THU NOV 15 2018

NOTE: FAIR INDICATES FEW OR NO CLOUDS BELOW 12,000 FEET WITH NO
SIGNIFICANT WEATHER AND/OR OBSTRUCTIONS TO VISIBILITY.


CAZ016>018-151100-
SOUTHERN SACRAMENTO VALLEY
  
CITY           SKY/WX    TMP DP  RH WIND       PRES   REMARKS
AUBURN         CLOUDY    50  25  37 E7        30.22F HAZE             
BEALE AFB      HAZE      37  30  76 CALM      30.21S VSB 1            
LINCOLN        FAIR      34  28  80 NE7       30.21F WCI  28          
MARYSVILLE     CLOUDY    35  28  75 CALM      30.23F HAZE             
SAC INTL ARPT  CLOUDY    34  31  88 CALM      30.22S HAZE             
MATHER AIRPORT NOT AVBL                                               
DOWNTOWN SAC   N/A       39  MM  MM MISG
SAC EXEC ARPT  CLEAR     35  31  85 CALM      30.22F FOG              
VACAVILLE      CLOUDY    34  25  69 CALM      30.24S HAZE             
$$

SKY/WX - Weather  TMP - Temperature  DP - Dew Point  RH - Relative Humidity
WIND - Wind Direction/Speed PRES - Barometric Pressure